Volver al catálogo

COSMOS 1867 COOLANT

ActivoLEO
NORAD 39674·DEBRIS·🇷🇺 Russia

Lanzado Jul 10, 1987 desde Baikonur Cosmodrome

Loading…

Próximos Pases (próximas 24 horas)

TLE

ActualizadoSource: Space-Track

Época: Sep 14, 2026, 05:52 UTC

1 39674U 87060AM  26257.24483112  .00000216  00000-0  11122-3 0  9996
2 39674  65.0087 118.4247 0019691 279.8201  80.0662 14.34864084649473

Sigue COSMOS 1867 COOLANT en tiempo real con AllMySat

Download on the App Store